Погода в Ключи

Погода в Ключи : погода сейчас, прогноз погоды и архив. Всё, что Вы хотите узнать о погоде в Ключи!

Хотите узнать прогноз погоды в Ключи? Тогда Вам сюда: Погода в Ключи

Поиск расширенной информации на нашем сайте:

Другие новости

Новости СМИ2

Главная страница сайта

Новости сайта

03.07.2017

Напоминаем, что на нашем специализированном сайте Метеоцентр.Азия вы можете получить высокодетализированные автоматические прогнозы погоды по пунктам России, СНГ и мира в авиационном формате (включающие направление и скорость ветра, видимость, явления погоды, количество и форму облачности, нижнюю и верхнюю границу облачности).


Погода в Ключи - сегодня

Время (UTC), дата Ветер
(°,м/с) 
Видим.   Явления Облачность Т
(°С)
Тd
(°С)
f(%) Тe
(°С)
Pmin
(гПа)
dP
(гПа)
Po
(мм)
O2
(г/м3)
Тmin Tmax R s Состояние
почвы
12 20.09.17 110 (В) 4000 м  дымка{ливн. осадки}  10/10 360 м 
[St]
+10.5 +7.4 81 +11  1014.9  0.3  759  293           
18 20.09.17 100 (В) 4000 м  дымка  10/10 360 м 
[St]
+9.4 +5.7 78 +9  1014.8  0.1  758  295           
21 20.09.17 120 (ЮВ) 4000 м  дымка  10/8 500 м средняя 
[Sc|Ac As]
+9.4 +5.8 78 +9  1015.2  0.5  759  295  +8.7    0.0    влажная 
00 21.09.17 110 (В) 10 км    10/8 800 м средняя 
[Sc|Ac As]
+12 +4.6 60 +12  1015.2  759  292           
06 21.09.17 080 (В) 10 км    10/8 450 м средняя 
[Sc|Ac As]
+11.3 +4.8 64 +11  1015.1  0.7  759  293           
12 21.09.17 100 (В) 20000 м    10/8 1000 м средняя 
[Sc|Ac As]
+9.4 +5.8 78 +9  1017.1  0.7  760  295           
18 21.09.17 100 (В) 4000 м  дымка{ливн. осадки}  10/8 630 м средняя 
[Sc diur, vesp|Ac As]
+8.8 +6.8 87 +9  1017.7  0.1  761  296           
21 21.09.17 110 (В) 4000 м  дымка  10/10 360 м 
[St]
+9.1 +6.9 86 +9  1018.5  0.7  761  296  +8.6    0.3    влажная 
00 22.09.17 070 (В) 10 км  {морось}  10/8 720 м средняя 
[Sc|Ac As]
+10.6 +6.9 78 +11  1018.7  0.2  761  294           
03 22.09.17 080 (В) 10 км    10/8 720 м средняя 
[Sc|Ac As]
+10.9 +6.8 76 +11  1017.8  -0.9  761  294           
06 22.09.17 080 (В) 10 км    10/8 700 м средняя 
[Sc|Ac As]
+10.3 +6 75 +10  1017.8  0.1  761  294           
09 22.09.17 100 (В) 4000 м  слаб. ливневой дождь  10/10 600 м кучево-дожд. 
[Cb cap]
+9.4 +6.3 81 +9  1018.2  0.4  761  295    +11.5  0.1     
12 22.09.17 120 (ЮВ) 4000 м  дымка{ливн. осадки}  10/10 420 м 
[St]
+9 +6.4 84 +8  1018.2  0.1  761  296           
18 22.09.17 130 (ЮВ) 4000 м  слаб. ливневой дождь  10/10 400 м кучево-дожд. 
[Cb cap]
+8.7 +7.2 90 +9  1017.9  -0.3  761  296           
21 22.09.17 100 (В) 4000 м  дымка{ливн. осадки}  10/10 400 м 
[St]
+9.5 +7.6 88 +10  1018.4  0.5  761  295  +8.5    0.3    влажная 
00 23.09.17 070 (В) 4000 м  слаб. ливневой дождь  10/10 400 м кучево-дожд. 
[Cb cap]
+11.9 +8.6 80 +13  1018.6  0.2  761  292           
03 23.09.17 070 (В) 20000 м  {ливн. осадки}  9/3 1000 м средняя, верхняя 
[Sc|Ac trans|Ci fib]
+12 +8.4 79 +12  1018.6  761  292           
06 23.09.17 090 (В) 20000 м  {ливн. осадки}  9/4 1000 м средняя, верхняя 
[Sc|Ac trans|Ci fib]
+13.9 +8.2 68 +15  1017.6  -1  761  290           
09 23.09.17 150 (ЮВ) 20000 м  {ливн. осадки}  9/3 1000 м средняя 
[Sc|Ac trans]
+9.2 +7.8 91 +9  1018.4  0.8  761  295    +13.9  0.0     
12 23.09.17 140 (ЮВ) 20000 м  {ливн. осадки}  9/3 1000 м средняя 
[Sc|Ac trans]
+7.1 +6.1 93 +7  1018.7  0.2  761  298           
15 23.09.17 130 (ЮВ) 20000 м    6/1 1000 м средняя 
[Sc|Ac trans]
+5.2 +4.2 93 +5  1018.4  -0.3  761  300           
18 23.09.17 тихо ()   0500 м  туман  ?/?  
+6 +5.3 95 +6  1018.3  761  299           
21 23.09.17 310 (СЗ) 0200 м  туман{ливн. осадки}  ?/?  
+7.4 +6.6 95 +8  1018.8  0.5  761  298  +5.2    0.0    влажная 
00 24.09.17 080 (В) 20000 м  {ливн. осадки, туман}  10/6 1000 м средняя 
[Sc|As trans]
+10.9 +8.2 83 +11  1018.3  -0.5  761  293           
03 24.09.17 070 (В) 20000 м    9/3 1000 м средняя, верхняя 
[Sc|Ac trans|Ci fib]
+14.8 +8.1 64 +15  1016.7  -1.5  760  289           
Время (UTC), дата Ветер
(°,м/с) 
Видим.   Явления Облачность Т
(°С)
Тd
(°С)
f(%) Тe
(°С)
Pmin
(гПа)
dP
(гПа)
Po
(мм)
O2
(г/м3)
Тmin Tmax R s Состояние
почвы

Для получения пояснительной информации подведите курсор к названию столбца.

ПОГОДА в Ключи - архив

Всё, что Вы хотите узнать о погоде в Ключи - удобно и подробно!

Выберите нужную дату (начиная с 1 января 2015* года) и нажмите кнопку "Найти".
Будут отображены архивные сводки погоды по пункту Ключи, начиная с указанной даты.


Отображать данные в формате CSV (для использования в таблицах Excel)


Внимание! Наш архив погоды предназначен исключительно для личного некоммерческого использования в познавательных целях. Если Вам необходимы официальные справки о состоянии погоды (для производственных, юридических, коммерческих и т.п. целей), обращайтесь в органы Росгидромета.

*Примечание: данная дата относится к архиву по метеостанциям СССР (Россия, СНГ, Балтия).
Архив по метеостанциям Зарубежной Европы и Азии (кроме Китая) хранится 10 дней, по другим регионам земного шара (Китай, Африка, Америка, Австралия, Океания) - 1 день.

Ключи - район местоположения метеостанции


Название, широта, долгота, высота метеостанции:
Ключи 56.3°ш. 160.8°д. 29 м над ур. моря [Российская Федерация]

Дополнительная информация

В oтличие oт бoльшинства пoгoдных сайтoв мы публикуем пoдрoбную метеoинфoрмацию в детальнoм прoфессиoнальнoм фoрмате.

Характеристики температуры и влажнoсти вoздуха измеряются на высoте 2 м в тени вдали oт зданий и деревьев.
Скoрoсть ветра измеряется на высoте 10 м (на урoвне рoста челoвека скoрoсть ветра ниже в 1.5-2 раза). Если метеoстанция нахoдится в гoрoде или в лесу, тo скoрoсть ветра занижена на 2-4 м/с пo сравнению с oткрытым местoм. Скoрoсть ветра над акватoриями крупных рек и oзёр, а также на вершинах хoлмoв на 2-5 м/с выше, чем в oбычных услoвиях.
Атмoсфернoе давление в разных тoчках местнoсти мoжет значительнo oтличаться oт давления на метеoстанции, в зависимoсти oт услoвий рельефа (при пoдъёме на 10 м давление пoнижается примернo на 1 мм рт.ст.).